When you browse on this site, cookies collect data to enhance your experience and personalize the content and advertising you see.
Visit our Privacy Policy to learn more. By continuing to use the site, you agree to this use of cookies and data.
  • In Spain
  • List of Countries
  • For 7 days
  • Water Temperature
  • Weather Map
  • Weather Widgets
  • user-avatar
    Login

    Hourly Weather Kruhlyky

    Today, 14 October, Monday

    Time Temperature Precipitation Wind Pressure Humidity
    00:00 +13°C° 0 mm 2 mps 735 mmHg 50%
    01:00 +12°C° 0 mm 2 mps 735 mmHg 50%
    02:00 +12°C° 0 mm 1 mps 735 mmHg 51%
    03:00 +12°C° 0 mm 1 mps 735 mmHg 51%
    04:00 +12°C° 0 mm 1 mps 734 mmHg 51%
    05:00 +11°C° 0 mm 1 mps 734 mmHg 52%
    06:00 +12°C° 0 mm 1 mps 734 mmHg 52%
    07:00 +13°C° 0 mm 1 mps 735 mmHg 52%
    08:00 +13°C° 0 mm 2 mps 735 mmHg 52%
    09:00 +15°C° 0 mm 2 mps 735 mmHg 48%
    10:00 +18°C° 0 mm 2 mps 735 mmHg 43%
    11:00 +20°C° 0 mm 3 mps 735 mmHg 38%
    12:00 +21°C° 0 mm 3 mps 735 mmHg 37%
    13:00 +21°C° 0 mm 3 mps 734 mmHg 37%
    14:00 +22°C° 0 mm 3 mps 734 mmHg 37%
    15:00 +20°C° 0 mm 2 mps 734 mmHg 41%
    16:00 +19°C° 0 mm 2 mps 734 mmHg 46%
    17:00 +18°C° 0 mm 2 mps 733 mmHg 50%
    18:00 +17°C° 0 mm 2 mps 733 mmHg 52%
    19:00 +15°C° 0 mm 2 mps 734 mmHg 54%
    20:00 +14°C° 0 mm 2 mps 734 mmHg 57%
    21:00 +14°C° 0 mm 2 mps 733 mmHg 58%
    22:00 +13°C° 0 mm 2 mps 733 mmHg 59%
    23:00 +13°C° 0 mm 1 mps 733 mmHg 60%

    Tomorrow, 15 October, Tuesday

    Time Temperature Precipitation Wind Pressure Humidity
    00:00 +13°C° 0 mm 1 mps 733 mmHg 61%
    01:00 +12°C° 0 mm 1 mps 733 mmHg 61%
    02:00 +12°C° 0 mm 1 mps 733 mmHg 62%
    03:00 +12°C° 0 mm 1 mps 733 mmHg 63%
    04:00 +12°C° 0 mm 1 mps 733 mmHg 63%
    05:00 +12°C° 0 mm 1 mps 733 mmHg 64%
    06:00 +12°C° 0 mm 1 mps 733 mmHg 62%
    07:00 +13°C° 0 mm 1 mps 733 mmHg 61%
    08:00 +14°C° 0 mm 1 mps 734 mmHg 59%
    09:00 +16°C° 0 mm 1 mps 734 mmHg 53%
    10:00 +18°C° 0 mm 2 mps 734 mmHg 47%
    11:00 +20°C° 0 mm 2 mps 734 mmHg 40%
    12:00 +21°C° 0 mm 3 mps 733 mmHg 40%
    13:00 +22°C° 0 mm 3 mps 733 mmHg 39%
    14:00 +22°C° 0 mm 3 mps 733 mmHg 38%
    15:00 +21°C° 0 mm 3 mps 733 mmHg 44%
    16:00 +20°C° 0 mm 3 mps 732 mmHg 49%
    17:00 +18°C° 0 mm 3 mps 732 mmHg 55%
    18:00 +17°C° 0 mm 3 mps 732 mmHg 59%
    19:00 +16°C° 0 mm 3 mps 732 mmHg 62%
    20:00 +14°C° 0 mm 3 mps 732 mmHg 66%
    21:00 +14°C° 0 mm 3 mps 732 mmHg 67%
    22:00 +13°C° 0 mm 4 mps 732 mmHg 68%
    23:00 +13°C° 0 mm 4 mps 732 mmHg 69%

    Day after tomorrow, 16 October, Wednesday

    Time Temperature Precipitation Wind Pressure Humidity
    00:00 +12°C° 0 mm 4 mps 732 mmHg 68%
    01:00 +12°C° 0 mm 4 mps 732 mmHg 66%
    02:00 +12°C° 0 mm 4 mps 732 mmHg 65%
    03:00 +11°C° 0 mm 4 mps 732 mmHg 66%
    04:00 +11°C° 0 mm 4 mps 732 mmHg 67%
    05:00 +11°C° 0 mm 4 mps 732 mmHg 67%
    06:00 +11°C° 0 mm 4 mps 732 mmHg 66%
    07:00 +11°C° 0 mm 4 mps 732 mmHg 65%
    08:00 +12°C° 0 mm 4 mps 732 mmHg 64%
    09:00 +14°C° 0 mm 4 mps 732 mmHg 57%
    10:00 +15°C° 0 mm 5 mps 732 mmHg 50%
    11:00 +17°C° 0 mm 5 mps 733 mmHg 43%
    12:00 +19°C° 0 mm 4 mps 732 mmHg 42%
    13:00 +20°C° 0 mm 4 mps 732 mmHg 41%
    14:00 +21°C° 0 mm 4 mps 732 mmHg 40%
    15:00 +20°C° 0 mm 3 mps 732 mmHg 44%
    16:00 +18°C° 0 mm 3 mps 732 mmHg 49%
    17:00 +17°C° 0 mm 2 mps 732 mmHg 54%
    18:00 +16°C° 0 mm 2 mps 732 mmHg 57%
    19:00 +15°C° 0 mm 2 mps 732 mmHg 59%
    20:00 +14°C° 0 mm 2 mps 732 mmHg 62%
    21:00 +14°C° 0 mm 2 mps 732 mmHg 63%
    22:00 +13°C° 0 mm 2 mps 732 mmHg 65%
    23:00 +13°C° 0 mm 2 mps 732 mmHg 66%

    17 October, Thursday

    Time Temperature Precipitation Wind Pressure Humidity
    00:00 +13°C° 0 mm 2 mps 732 mmHg 67%
    01:00 +12°C° 0 mm 2 mps 733 mmHg 68%
    02:00 +12°C° 0 mm 1 mps 733 mmHg 70%
    03:00 +12°C° 0 mm 1 mps 733 mmHg 71%
    04:00 +11°C° 0 mm 1 mps 733 mmHg 72%
    05:00 +11°C° 0 mm 1 mps 732 mmHg 73%
    06:00 +12°C° 0 mm 1 mps 733 mmHg 71%
    07:00 +12°C° 0 mm 1 mps 733 mmHg 69%
    08:00 +13°C° 0 mm 1 mps 733 mmHg 67%
    09:00 +15°C° 0 mm 1 mps 733 mmHg 61%
    10:00 +18°C° 0 mm 1 mps 733 mmHg 55%
    11:00 +19°C° 0 mm 1 mps 734 mmHg 49%
    12:00 +20°C° 0 mm 1 mps 734 mmHg 46%
    13:00 +21°C° 0 mm 1 mps 733 mmHg 43%
    14:00 +22°C° 0 mm 1 mps 733 mmHg 40%
    15:00 +21°C° 0 mm 1 mps 733 mmHg 45%
    16:00 +20°C° 0 mm 1 mps 733 mmHg 50%
    17:00 +16°C° 0 mm 0 mps 733 mmHg 55%
    18:00 +18°C° 0 mm 1 mps 733 mmHg 59%
    19:00 +16°C° 0 mm 1 mps 733 mmHg 63%
    20:00 +15°C° 0 mm 1 mps 733 mmHg 68%
    21:00 +14°C° 0 mm 1 mps 733 mmHg 73%
    22:00 +14°C° 0 mm 1 mps 733 mmHg 77%
    23:00 +13°C° 0 mm 1 mps 733 mmHg 82%

    18 October, Friday

    Time Temperature Precipitation Wind Pressure Humidity
    00:00 +13°C° 0 mm 1 mps 734 mmHg 84%
    01:00 +13°C° 0 mm 1 mps 734 mmHg 86%
    02:00 +12°C° 0 mm 1 mps 734 mmHg 89%
    03:00 +12°C° 0 mm 1 mps 734 mmHg 89%
    04:00 +12°C° 0 mm 1 mps 734 mmHg 90%
    05:00 +12°C° 0 mm 1 mps 734 mmHg 91%
    06:00 +12°C° 0 mm 2 mps 734 mmHg 89%
    07:00 +12°C° 0 mm 2 mps 734 mmHg 88%
    08:00 +13°C° 0 mm 2 mps 735 mmHg 86%
    09:00 +15°C° 0 mm 2 mps 735 mmHg 79%
    10:00 +16°C° 0 mm 2 mps 735 mmHg 71%
    11:00 +18°C° 0 mm 2 mps 735 mmHg 64%
    12:00 +19°C° 0 mm 2 mps 735 mmHg 61%
    13:00 +20°C° 0 mm 2 mps 735 mmHg 57%
    14:00 +22°C° 0 mm 1 mps 735 mmHg 54%
    15:00 +19°C° 0 mm 2 mps 734 mmHg 58%
    16:00 +18°C° 0 mm 2 mps 734 mmHg 62%
    17:00 +17°C° 0 mm 2 mps 734 mmHg 67%
    18:00 +16°C° 0 mm 2 mps 734 mmHg 70%
    19:00 +15°C° 0 mm 2 mps 734 mmHg 74%
    20:00 +13°C° 0 mm 3 mps 734 mmHg 78%
    21:00 +13°C° 0 mm 3 mps 734 mmHg 79%
    22:00 +12°C° 0 mm 3 mps 735 mmHg 80%
    23:00 +12°C° 0 mm 3 mps 735 mmHg 80%

    19 October, Saturday

    Time Temperature Precipitation Wind Pressure Humidity
    00:00 +11°C° 0 mm 3 mps 734 mmHg 82%
    01:00 +11°C° 0 mm 3 mps 734 mmHg 84%
    02:00 +11°C° 0 mm 3 mps 734 mmHg 86%
    03:00 +11°C° 0 mm 3 mps 734 mmHg 86%
    04:00 +10°C° 0 mm 3 mps 734 mmHg 87%
    05:00 +10°C° 0 mm 3 mps 734 mmHg 88%
    06:00 +11°C° 0 mm 3 mps 734 mmHg 85%
    07:00 +11°C° 0 mm 3 mps 734 mmHg 82%
    08:00 +12°C° 0 mm 4 mps 734 mmHg 79%
    09:00 +14°C° 0 mm 4 mps 735 mmHg 69%
    10:00 +17°C° 0 mm 4 mps 735 mmHg 58%
    11:00 +19°C° 0 mm 5 mps 735 mmHg 48%
    12:00 +20°C° 0 mm 5 mps 735 mmHg 45%
    13:00 +21°C° 0 mm 5 mps 735 mmHg 41%
    14:00 +21°C° 0 mm 5 mps 734 mmHg 38%
    15:00 +20°C° 0 mm 4 mps 734 mmHg 42%
    16:00 +18°C° 0 mm 4 mps 734 mmHg 47%
    17:00 +17°C° 0 mm 3 mps 734 mmHg 51%
    18:00 +16°C° 0 mm 3 mps 734 mmHg 53%
    19:00 +14°C° 0 mm 3 mps 734 mmHg 54%
    20:00 +13°C° 0 mm 3 mps 734 mmHg 56%
    21:00 +12°C° 0 mm 3 mps 734 mmHg 56%
    22:00 +12°C° 0 mm 3 mps 734 mmHg 57%
    23:00 +12°C° 0 mm 3 mps 734 mmHg 58%
    Show more